Location: R�serve Fauniques des Laurentides
(47.3100°N, 71.1900°W)
Time: 14:24:05
(UTC-04:00)

Cosmos 1674 - Visible Passes

Search period start: 26 May 2016 00:00
Search period end: 05 June 2016 00:00
Orbit: 500 x 526 km, 82.5° (Epoch: 25 May)

Date Brightness Start Highest point End Pass type
(mag) Time Alt. Az. Time Alt. Az. Time Alt. Az.
26 May 2.7 01:37:39 59° SE 01:38:06 66° E 01:41:51 10° NNE visible
26 May 5.1 03:13:11 10° W 03:14:15 11° WNW 03:15:18 10° NW visible
27 May 3.0 01:22:02 50° ESE 01:22:24 52° E 01:26:04 10° NNE visible
27 May 4.9 02:57:00 11° W 02:58:25 13° WNW 03:00:17 10° NW visible
28 May 3.3 01:06:25 41° ESE 01:06:42 42° E 01:10:16 10° NNE visible
28 May 4.7 02:41:22 14° W 02:42:36 16° WNW 02:44:58 10° NNW visible
29 May 3.7 00:50:46 33° E 00:51:00 34° E 00:54:26 10° NNE visible
29 May 4.5 02:25:43 17° W 02:26:48 19° WNW 02:29:32 10° NNW visible
30 May 4.0 00:35:06 28° E 00:35:19 28° E 00:38:34 10° NNE visible
30 May 4.3 02:10:04 20° W 02:10:59 22° WNW 02:14:01 10° NNW visible
31 May 4.3 00:19:26 23° E 00:19:38 23° E 00:22:38 10° NE visible
31 May 4.0 01:54:23 25° W 01:55:12 27° WNW 01:58:27 10° NNW visible
01 Jun 4.5 00:03:45 19° E 00:03:58 19° E 00:06:40 10° NE visible
01 Jun 3.7 01:38:42 30° W 01:39:24 32° WNW 01:42:51 10° N visible
01 Jun 4.7 23:48:03 16° E 23:48:18 16° E 23:50:37 10° NE visible
02 Jun 3.4 01:23:00 36° WSW 01:23:37 40° WNW 01:27:12 10° N visible
02 Jun 4.9 23:32:20 13° E 23:32:38 13° E 23:34:25 10° ENE visible
03 Jun 3.1 01:07:17 45° WSW 01:07:51 49° WNW 01:11:32 10° N visible
03 Jun 5.1 23:16:36 10° E 23:16:59 11° E 23:17:50 10° ENE visible
04 Jun 2.8 00:51:33 54° WSW 00:52:04 62° W 00:55:51 10° N visible
